Time,TemperatureF,DewpointF,PressureIn,WindDirection,WindDirectionDegrees,WindSpeedMPH,WindSpeedGustMPH,Humidity,HourlyPrecipIn,Conditions,Clouds,dailyrainin,SoftwareType,DateUTC
2013-03-31 00:00:00,49.8,32.5,30.07,SSE,157,0.0,0.0,51,0.00,,,0.00,WUHU21523XXSP,2013-03-31 04:00:00,
2013-03-31 00:05:00,49.8,32.5,30.07,SSE,157,0.0,0.0,51,0.00,,,0.00,WUHU21523XXSP,2013-03-31 04:05:00,
2013-03-31 00:10:00,49.6,32.7,30.08,SSE,157,0.0,0.0,52,0.00,,,0.00,WUHU21523XXSP,2013-03-31 04:10:00,
2013-03-31 00:15:00,49.6,32.7,30.07,SSE,157,0.0,0.0,52,0.00,,,0.00,WUHU21523XXSP,2013-03-31 04:15:00,
2013-03-31 00:20:00,49.6,32.3,30.07,SSE,157,0.0,0.0,51,0.00,,,0.00,WUHU21523XXSP,2013-03-31 04:20:00,
2013-03-31 00:25:00,49.3,32.4,30.07,SSE,157,0.0,0.0,52,0.00,,,0.00,WUHU21523XXSP,2013-03-31 04:25:00,
2013-03-31 00:30:00,49.3,32.4,30.07,SSE,157,0.0,0.0,52,0.00,,,0.00,WUHU21523XXSP,2013-03-31 04:30:00,
2013-03-31 00:35:00,49.3,32.4,30.07,SSE,157,0.0,0.0,52,0.00,,,0.00,WUHU21523XXSP,2013-03-31 04:35:00,
2013-03-31 00:40:00,49.1,32.2,30.07,SSE,157,0.0,0.0,52,0.00,,,0.00,WUHU21523XXSP,2013-03-31 04:40:00,
2013-03-31 00:45:00,48.9,32.0,30.07,SSE,157,0.0,0.0,52,0.00,,,0.00,WUHU21523XXSP,2013-03-31 04:45:00,
2013-03-31 00:50:00,48.9,32.5,30.07,SSE,157,0.0,0.0,53,0.00,,,0.00,WUHU21523XXSP,2013-03-31 04:50:00,
2013-03-31 00:55:00,48.7,32.3,30.07,SSE,157,0.0,0.0,53,0.00,,,0.00,WUHU21523XXSP,2013-03-31 04:55:00,
2013-03-31 01:00:00,48.7,32.3,30.06,SSE,157,0.0,0.0,53,0.00,,,0.00,WUHU21523XXSP,2013-03-31 05:00:00,
2013-03-31 01:05:00,48.7,32.3,30.06,SSE,157,0.0,0.0,53,0.00,,,0.00,WUHU21523XXSP,2013-03-31 05:05:00,
2013-03-31 01:10:00,48.7,32.8,30.06,SSE,157,0.0,0.0,54,0.00,,,0.00,WUHU21523XXSP,2013-03-31 05:10:00,
2013-03-31 01:15:00,48.7,32.8,30.06,SSE,157,0.0,0.0,54,0.00,,,0.00,WUHU21523XXSP,2013-03-31 05:15:00,
2013-03-31 01:20:00,48.6,32.6,30.05,SSE,157,0.0,0.0,54,0.00,,,0.00,WUHU21523XXSP,2013-03-31 05:20:00,
2013-03-31 01:25:00,48.6,32.6,30.05,SSE,157,0.0,0.0,54,0.00,,,0.00,WUHU21523XXSP,2013-03-31 05:25:00,
2013-03-31 01:30:00,48.6,32.6,30.05,SSE,157,0.0,0.0,54,0.00,,,0.00,WUHU21523XXSP,2013-03-31 05:30:00,
2013-03-31 01:35:00,48.6,32.6,30.05,SSE,157,0.0,0.0,54,0.00,,,0.00,WUHU21523XXSP,2013-03-31 05:35:00,
2013-03-31 01:40:00,48.6,33.1,30.05,SSE,157,0.0,0.0,55,0.00,,,0.00,WUHU21523XXSP,2013-03-31 05:40:00,
2013-03-31 01:45:00,48.6,33.1,30.04,SSE,157,0.0,0.0,55,0.00,,,0.00,WUHU21523XXSP,2013-03-31 05:45:00,
2013-03-31 01:50:00,48.4,32.9,30.04,SSE,157,0.0,0.0,55,0.00,,,0.00,WUHU21523XXSP,2013-03-31 05:50:00,
2013-03-31 01:55:00,48.4,32.9,30.04,SSE,157,0.0,0.0,55,0.00,,,0.00,WUHU21523XXSP,2013-03-31 05:55:00,
2013-03-31 02:02:00,48.2,32.7,30.04,SSE,157,0.0,0.0,55,0.00,,,0.00,WUHU21523XXSP,2013-03-31 06:02:00,
2013-03-31 02:07:00,48.2,33.2,30.04,SSE,157,0.0,0.0,56,0.00,,,0.00,WUHU21523XXSP,2013-03-31 06:07:00,
2013-03-31 02:12:00,48.0,33.0,30.03,SSE,157,0.0,0.0,56,0.00,,,0.00,WUHU21523XXSP,2013-03-31 06:12:00,
2013-03-31 02:22:00,48.0,33.0,30.03,SSE,157,0.0,0.0,56,0.00,,,0.00,WUHU21523XXSP,2013-03-31 06:22:00,
2013-03-31 02:32:00,48.0,33.5,30.03,SSE,157,0.0,0.0,57,0.00,,,0.00,WUHU21523XXSP,2013-03-31 06:32:00,
2013-03-31 02:37:00,48.0,33.5,30.03,SSE,157,0.0,0.0,57,0.00,,,0.00,WUHU21523XXSP,2013-03-31 06:37:00,
2013-03-31 02:42:00,47.8,33.3,30.03,SSE,157,0.0,0.0,57,0.00,,,0.00,WUHU21523XXSP,2013-03-31 06:42:00,
2013-03-31 02:47:00,47.8,33.3,30.02,SSE,157,0.0,0.0,57,0.00,,,0.00,WUHU21523XXSP,2013-03-31 06:47:00,
2013-03-31 02:57:00,47.8,33.8,30.01,SSE,157,0.0,0.0,58,0.00,,,0.00,WUHU21523XXSP,2013-03-31 06:57:00,
2013-03-31 03:02:00,47.7,33.6,30.01,SSE,157,0.0,0.0,58,0.00,,,0.00,WUHU21523XXSP,2013-03-31 07:02:00,
2013-03-31 03:07:00,47.5,33.4,30.01,SSE,157,0.0,0.0,58,0.00,,,0.00,WUHU21523XXSP,2013-03-31 07:07:00,
2013-03-31 03:12:00,47.5,33.0,30.01,SSE,157,0.0,0.0,57,0.00,,,0.00,WUHU21523XXSP,2013-03-31 07:12:00,
2013-03-31 03:17:00,47.5,33.4,30.01,SSE,157,0.0,0.0,58,0.00,,,0.00,WUHU21523XXSP,2013-03-31 07:17:00,
2013-03-31 03:22:00,47.3,33.2,30.01,SSE,157,0.0,0.0,58,0.00,,,0.00,WUHU21523XXSP,2013-03-31 07:22:00,
2013-03-31 03:27:00,47.3,33.2,30.01,SSE,157,0.0,0.0,58,0.00,,,0.00,WUHU21523XXSP,2013-03-31 07:27:00,
2013-03-31 03:32:00,47.1,33.1,30.01,SSE,157,0.0,0.0,58,0.00,,,0.00,WUHU21523XXSP,2013-03-31 07:32:00,
2013-03-31 03:37:00,47.1,33.5,30.00,SSE,157,0.0,0.0,59,0.00,,,0.00,WUHU21523XXSP,2013-03-31 07:37:00,
2013-03-31 03:42:00,47.1,33.5,30.00,SSE,157,0.0,0.0,59,0.00,,,0.00,WUHU21523XXSP,2013-03-31 07:42:00,
2013-03-31 03:47:00,46.9,33.3,30.00,SSE,157,0.0,0.0,59,0.00,,,0.00,WUHU21523XXSP,2013-03-31 07:47:00,
2013-03-31 03:52:00,46.9,33.3,30.00,SSE,157,0.0,0.0,59,0.00,,,0.00,WUHU21523XXSP,2013-03-31 07:52:00,
2013-03-31 03:57:00,46.9,33.8,30.00,SSE,157,0.0,0.0,60,0.00,,,0.00,WUHU21523XXSP,2013-03-31 07:57:00,
2013-03-31 04:02:00,46.9,33.8,30.00,SSE,157,0.0,0.0,60,0.00,,,0.00,WUHU21523XXSP,2013-03-31 08:02:00,
2013-03-31 04:07:00,46.8,33.6,29.99,SSE,157,0.0,0.0,60,0.00,,,0.00,WUHU21523XXSP,2013-03-31 08:07:00,
2013-03-31 04:17:00,46.8,33.6,29.99,SSE,157,0.0,0.0,60,0.00,,,0.00,WUHU21523XXSP,2013-03-31 08:17:00,
2013-03-31 04:22:00,46.6,33.8,29.99,SSE,157,0.0,0.0,61,0.00,,,0.00,WUHU21523XXSP,2013-03-31 08:22:00,
2013-03-31 04:27:00,46.6,33.8,29.99,SSE,157,0.0,0.0,61,0.00,,,0.00,WUHU21523XXSP,2013-03-31 08:27:00,
2013-03-31 04:32:00,46.6,33.8,29.99,SSE,157,0.0,0.0,61,0.00,,,0.00,WUHU21523XXSP,2013-03-31 08:32:00,
2013-03-31 04:37:00,46.6,33.8,29.99,SSE,157,0.0,0.0,61,0.00,,,0.00,WUHU21523XXSP,2013-03-31 08:37:00,
2013-03-31 04:42:00,46.6,33.8,29.98,SSE,157,0.0,0.0,61,0.00,,,0.00,WUHU21523XXSP,2013-03-31 08:42:00,
2013-03-31 04:47:00,46.6,33.8,29.99,SSE,157,0.0,0.0,61,0.00,,,0.00,WUHU21523XXSP,2013-03-31 08:47:00,
2013-03-31 04:52:00,46.6,34.2,29.99,SSE,157,0.0,0.0,62,0.00,,,0.00,WUHU21523XXSP,2013-03-31 08:52:00,
2013-03-31 04:57:00,46.6,34.2,29.99,SSE,157,0.0,0.0,62,0.00,,,0.00,WUHU21523XXSP,2013-03-31 08:57:00,
2013-03-31 05:07:00,46.6,34.2,29.99,SSE,157,0.0,0.0,62,0.00,,,0.00,WUHU21523XXSP,2013-03-31 09:07:00,
2013-03-31 05:17:00,46.6,34.6,29.98,SSE,157,0.0,0.0,63,0.00,,,0.00,WUHU21523XXSP,2013-03-31 09:17:00,
2013-03-31 05:27:00,46.2,34.7,29.98,SSE,157,0.0,0.0,64,0.00,,,0.00,WUHU21523XXSP,2013-03-31 09:27:00,
2013-03-31 05:32:00,46.2,34.7,29.98,SSE,157,0.0,0.0,64,0.00,,,0.00,WUHU21523XXSP,2013-03-31 09:32:00,
2013-03-31 05:42:00,46.2,35.5,29.98,SSE,157,0.0,0.0,66,0.00,,,0.00,WUHU21523XXSP,2013-03-31 09:42:00,
2013-03-31 05:47:00,46.2,35.5,29.98,SSE,157,0.0,0.0,66,0.00,,,0.00,WUHU21523XXSP,2013-03-31 09:47:00,
2013-03-31 05:57:00,45.9,35.5,29.98,SSE,157,0.0,0.0,67,0.02,,,0.00,WUHU21523XXSP,2013-03-31 09:57:00,
2013-03-31 06:02:00,45.7,35.7,29.98,SSE,157,0.0,0.0,68,0.02,,,0.02,WUHU21523XXSP,2013-03-31 10:02:00,
2013-03-31 06:07:00,45.7,36.1,29.97,SSE,157,0.0,0.0,69,0.02,,,0.02,WUHU21523XXSP,2013-03-31 10:07:00,
2013-03-31 06:12:00,45.7,36.1,29.97,SSE,157,0.0,0.0,69,0.04,,,0.02,WUHU21523XXSP,2013-03-31 10:12:00,
2013-03-31 06:17:00,45.5,36.3,29.97,SSE,157,0.0,0.0,70,0.04,,,0.04,WUHU21523XXSP,2013-03-31 10:17:00,
2013-03-31 06:22:00,45.3,36.5,29.97,SSE,157,0.0,0.0,71,0.04,,,0.04,WUHU21523XXSP,2013-03-31 10:22:00,
2013-03-31 06:27:00,45.5,36.7,29.97,SSE,157,0.0,0.0,71,0.04,,,0.04,WUHU21523XXSP,2013-03-31 10:27:00,
2013-03-31 06:32:00,45.3,36.5,29.98,SSE,157,0.0,0.0,71,0.06,,,0.06,WUHU21523XXSP,2013-03-31 10:32:00,
2013-03-31 06:37:00,45.1,36.6,29.98,SSE,157,0.0,0.0,72,0.06,,,0.06,WUHU21523XXSP,2013-03-31 10:37:00,
2013-03-31 06:42:00,45.1,36.6,29.98,SSE,157,0.0,0.0,72,0.06,,,0.06,WUHU21523XXSP,2013-03-31 10:42:00,
2013-03-31 06:47:00,45.0,36.8,29.97,SSE,157,0.0,0.0,73,0.08,,,0.06,WUHU21523XXSP,2013-03-31 10:47:00,
2013-03-31 06:57:00,44.8,36.6,29.97,SSE,157,0.0,0.0,73,0.06,,,0.08,WUHU21523XXSP,2013-03-31 10:57:00,
2013-03-31 07:02:00,44.8,37.0,29.97,SSE,157,0.0,0.0,74,0.06,,,0.08,WUHU21523XXSP,2013-03-31 11:02:00,
2013-03-31 07:07:00,44.8,37.0,29.97,SSE,157,0.0,0.0,74,0.08,,,0.10,WUHU21523XXSP,2013-03-31 11:07:00,
2013-03-31 07:12:00,44.8,37.3,29.96,SSE,157,0.0,0.0,75,0.06,,,0.10,WUHU21523XXSP,2013-03-31 11:12:00,
2013-03-31 07:22:00,44.8,37.3,29.96,SSE,157,0.0,0.0,75,0.06,,,0.10,WUHU21523XXSP,2013-03-31 11:22:00,
2013-03-31 07:27:00,44.8,37.7,29.95,SSE,157,0.0,0.0,76,0.04,,,0.10,WUHU21523XXSP,2013-03-31 11:27:00,
2013-03-31 07:32:00,44.8,37.7,29.95,SSE,157,0.0,0.0,76,0.06,,,0.12,WUHU21523XXSP,2013-03-31 11:32:00,
2013-03-31 07:37:00,44.6,37.8,29.95,SSE,157,0.0,0.0,77,0.06,,,0.12,WUHU21523XXSP,2013-03-31 11:37:00,
2013-03-31 07:42:00,44.8,37.8,29.95,SSE,157,0.0,0.0,77,0.06,,,0.12,WUHU21523XXSP,2013-03-31 11:42:00,
2013-03-31 07:47:00,44.8,38.0,29.95,SSE,157,0.0,0.0,77,0.04,,,0.12,WUHU21523XXSP,2013-03-31 11:47:00,
2013-03-31 07:52:00,44.8,38.3,29.94,SSE,157,0.0,0.0,78,0.04,,,0.12,WUHU21523XXSP,2013-03-31 11:52:00,
2013-03-31 08:02:00,44.8,38.3,29.94,SSE,157,0.0,0.0,78,0.04,,,0.12,WUHU21523XXSP,2013-03-31 12:02:00,
2013-03-31 08:07:00,44.8,38.3,29.94,SSE,157,0.0,0.0,78,0.02,,,0.12,WUHU21523XXSP,2013-03-31 12:07:00,
2013-03-31 08:12:00,44.8,38.3,29.94,SSE,157,0.0,0.0,78,0.02,,,0.12,WUHU21523XXSP,2013-03-31 12:12:00,
2013-03-31 08:17:00,44.6,38.5,29.94,SSE,157,0.0,0.0,79,0.02,,,0.12,WUHU21523XXSP,2013-03-31 12:17:00,
2013-03-31 08:22:00,44.8,38.7,29.94,SSE,157,0.0,0.0,79,0.02,,,0.12,WUHU21523XXSP,2013-03-31 12:22:00,
2013-03-31 08:27:00,44.8,38.7,29.94,SSE,157,0.0,0.0,79,0.00,,,0.12,WUHU21523XXSP,2013-03-31 12:27:00,
2013-03-31 08:32:00,44.8,38.7,29.94,SSE,157,0.0,0.0,79,0.00,,,0.12,WUHU21523XXSP,2013-03-31 12:32:00,
2013-03-31 08:42:00,45.0,39.2,29.94,SSE,157,0.0,0.0,80,0.00,,,0.12,WUHU21523XXSP,2013-03-31 12:42:00,
2013-03-31 08:47:00,45.0,39.2,29.94,SSE,157,0.0,0.0,80,0.02,,,0.12,WUHU21523XXSP,2013-03-31 12:47:00,
2013-03-31 08:52:00,45.0,39.2,29.94,SSE,157,0.0,0.0,80,0.02,,,0.14,WUHU21523XXSP,2013-03-31 12:52:00,
2013-03-31 08:57:00,45.0,39.2,29.94,SSE,157,0.0,0.0,80,0.02,,,0.14,WUHU21523XXSP,2013-03-31 12:57:00,
2013-03-31 09:02:00,45.0,39.2,29.93,SSE,157,0.0,0.0,80,0.02,,,0.14,WUHU21523XXSP,2013-03-31 13:02:00,
2013-03-31 09:07:00,45.1,39.4,29.93,SSE,157,0.0,0.0,80,0.02,,,0.14,WUHU21523XXSP,2013-03-31 13:07:00,
2013-03-31 09:17:00,45.1,39.7,29.93,SSE,157,0.0,0.0,81,0.04,,,0.16,WUHU21523XXSP,2013-03-31 13:17:00,
2013-03-31 09:22:00,45.1,39.7,29.93,SSE,157,0.0,0.0,81,0.06,,,0.18,WUHU21523XXSP,2013-03-31 13:22:00,
2013-03-31 09:27:00,45.1,39.7,29.92,SSE,157,0.0,0.0,81,0.06,,,0.18,WUHU21523XXSP,2013-03-31 13:27:00,
2013-03-31 09:32:00,45.3,39.9,29.92,SSE,157,0.0,0.0,81,0.06,,,0.18,WUHU21523XXSP,2013-03-31 13:32:00,
2013-03-31 09:37:00,45.3,39.9,29.92,SSE,157,0.0,0.0,81,0.08,,,0.18,WUHU21523XXSP,2013-03-31 13:37:00,
2013-03-31 09:42:00,45.3,40.2,29.92,SSE,157,0.0,0.0,82,0.08,,,0.20,WUHU21523XXSP,2013-03-31 13:42:00,
2013-03-31 09:52:00,45.3,40.2,29.92,SSE,157,0.0,0.0,82,0.06,,,0.20,WUHU21523XXSP,2013-03-31 13:52:00,
2013-03-31 10:02:00,45.3,40.2,29.92,SSE,157,0.0,0.0,82,0.08,,,0.20,WUHU21523XXSP,2013-03-31 14:02:00,
2013-03-31 10:07:00,45.5,40.7,29.91,ENE,67,0.0,0.0,83,0.08,,,0.23,WUHU21523XXSP,2013-03-31 14:07:00,
2013-03-31 10:12:00,45.5,40.7,29.91,ENE,67,0.0,0.0,83,0.06,,,0.23,WUHU21523XXSP,2013-03-31 14:12:00,
2013-03-31 10:17:00,45.7,40.8,29.91,NW,315,0.0,0.0,83,0.04,,,0.23,WUHU21523XXSP,2013-03-31 14:17:00,
2013-03-31 10:27:00,45.9,41.0,29.91,West,270,0.0,0.0,83,0.04,,,0.23,WUHU21523XXSP,2013-03-31 14:27:00,
2013-03-31 10:37:00,46.2,41.7,29.91,WSW,247,0.0,0.0,84,0.02,,,0.23,WUHU21523XXSP,2013-03-31 14:37:00,
2013-03-31 10:42:00,46.0,41.5,29.91,WSW,247,0.0,0.0,84,0.02,,,0.23,WUHU21523XXSP,2013-03-31 14:42:00,
2013-03-31 10:47:00,46.0,41.5,29.91,WSW,247,0.0,0.0,84,0.02,,,0.23,WUHU21523XXSP,2013-03-31 14:47:00,
2013-03-31 10:52:00,46.2,41.7,29.90,WSW,247,0.0,0.0,84,0.02,,,0.23,WUHU21523XXSP,2013-03-31 14:52:00,
2013-03-31 10:57:00,46.2,41.7,29.90,South,180,0.0,0.0,84,0.02,,,0.23,WUHU21523XXSP,2013-03-31 14:57:00,
2013-03-31 11:02:00,46.2,41.7,29.91,South,180,0.0,0.0,84,0.00,,,0.23,WUHU21523XXSP,2013-03-31 15:02:00,
2013-03-31 11:07:00,46.6,42.3,29.91,South,180,0.0,0.0,85,0.00,,,0.23,WUHU21523XXSP,2013-03-31 15:07:00,
2013-03-31 11:12:00,46.6,42.3,29.90,South,180,0.0,0.0,85,0.00,,,0.23,WUHU21523XXSP,2013-03-31 15:12:00,
2013-03-31 11:22:00,46.8,42.8,29.91,South,180,0.0,0.0,86,0.00,,,0.23,WUHU21523XXSP,2013-03-31 15:22:00,
2013-03-31 11:27:00,46.8,42.8,29.90,South,180,0.0,0.0,86,0.00,,,0.23,WUHU21523XXSP,2013-03-31 15:27:00,
2013-03-31 11:37:00,46.9,42.7,29.90,South,180,0.0,0.0,85,0.00,,,0.23,WUHU21523XXSP,2013-03-31 15:37:00,
2013-03-31 11:42:00,46.9,42.7,29.90,South,180,0.0,0.0,85,0.00,,,0.23,WUHU21523XXSP,2013-03-31 15:42:00,
2013-03-31 11:47:00,47.1,42.9,29.89,South,180,0.0,0.0,85,0.00,,,0.23,WUHU21523XXSP,2013-03-31 15:47:00,
2013-03-31 11:57:00,47.1,42.9,29.89,South,180,0.0,0.0,85,0.00,,,0.23,WUHU21523XXSP,2013-03-31 15:57:00,
2013-03-31 12:02:00,47.1,42.9,29.89,South,180,0.0,0.0,85,0.00,,,0.23,WUHU21523XXSP,2013-03-31 16:02:00,
2013-03-31 12:07:00,47.3,43.0,29.89,South,180,0.0,0.0,85,0.00,,,0.23,WUHU21523XXSP,2013-03-31 16:07:00,
2013-03-31 12:12:00,47.3,43.0,29.89,South,180,0.0,0.0,85,0.00,,,0.23,WUHU21523XXSP,2013-03-31 16:12:00,
2013-03-31 12:22:00,47.5,43.5,29.88,South,180,0.0,0.0,86,0.00,,,0.23,WUHU21523XXSP,2013-03-31 16:22:00,
2013-03-31 12:27:00,47.5,43.5,29.88,South,180,0.0,0.0,86,0.00,,,0.23,WUHU21523XXSP,2013-03-31 16:27:00,
2013-03-31 12:32:00,47.5,43.5,29.88,South,180,0.0,0.0,86,0.00,,,0.23,WUHU21523XXSP,2013-03-31 16:32:00,
2013-03-31 12:37:00,47.5,43.5,29.87,South,180,0.0,0.0,86,0.00,,,0.23,WUHU21523XXSP,2013-03-31 16:37:00,
2013-03-31 12:42:00,47.5,43.5,29.88,South,180,0.0,0.0,86,0.00,,,0.23,WUHU21523XXSP,2013-03-31 16:42:00,
2013-03-31 12:47:00,47.7,44.0,29.88,South,180,0.0,0.0,87,0.00,,,0.23,WUHU21523XXSP,2013-03-31 16:47:00,
2013-03-31 12:52:00,47.8,44.2,29.88,SSW,202,0.0,0.0,87,0.00,,,0.23,WUHU21523XXSP,2013-03-31 16:52:00,
2013-03-31 12:57:00,47.8,44.2,29.88,SSW,202,0.0,0.0,87,0.00,,,0.23,WUHU21523XXSP,2013-03-31 16:57:00,
2013-03-31 13:02:00,48.0,44.3,29.87,SSE,157,0.0,0.0,87,0.00,,,0.23,WUHU21523XXSP,2013-03-31 17:02:00,
2013-03-31 13:07:00,48.0,44.3,29.86,SSE,157,0.0,0.0,87,0.00,,,0.23,WUHU21523XXSP,2013-03-31 17:07:00,
2013-03-31 13:17:00,48.4,45.0,29.86,SSE,157,0.0,0.0,88,0.00,,,0.23,WUHU21523XXSP,2013-03-31 17:17:00,
2013-03-31 13:22:00,48.6,45.2,29.85,SSE,157,0.0,0.0,88,0.00,,,0.23,WUHU21523XXSP,2013-03-31 17:22:00,
2013-03-31 13:27:00,48.9,45.5,29.85,SSE,157,0.0,0.0,88,0.00,,,0.23,WUHU21523XXSP,2013-03-31 17:27:00,
2013-03-31 13:32:00,49.1,45.7,29.85,SSE,157,0.0,0.0,88,0.00,,,0.23,WUHU21523XXSP,2013-03-31 17:32:00,
2013-03-31 13:37:00,49.3,45.8,29.84,SSE,157,0.0,0.0,88,0.00,,,0.23,WUHU21523XXSP,2013-03-31 17:37:00,
2013-03-31 13:42:00,49.3,45.8,29.84,SSE,157,0.0,0.0,88,0.00,,,0.23,WUHU21523XXSP,2013-03-31 17:42:00,
2013-03-31 13:47:00,49.6,46.2,29.84,SSE,157,0.0,0.0,88,0.00,,,0.23,WUHU21523XXSP,2013-03-31 17:47:00,
2013-03-31 13:52:00,49.8,46.3,29.84,SE,135,0.0,0.0,88,0.00,,,0.23,WUHU21523XXSP,2013-03-31 17:52:00,
2013-03-31 13:57:00,50.2,46.3,29.83,SE,135,0.0,0.0,88,0.00,,,0.23,WUHU21523XXSP,2013-03-31 17:57:00,
2013-03-31 14:07:00,50.5,47.0,29.84,SE,135,0.0,0.0,88,0.00,,,0.23,WUHU21523XXSP,2013-03-31 18:07:00,
2013-03-31 14:17:00,51.1,47.6,29.83,SE,135,0.0,0.0,88,0.00,,,0.23,WUHU21523XXSP,2013-03-31 18:17:00,
2013-03-31 14:22:00,51.1,47.6,29.83,ESE,112,0.0,0.0,88,0.00,,,0.23,WUHU21523XXSP,2013-03-31 18:22:00,
2013-03-31 14:27:00,51.4,47.9,29.82,NE,45,2.0,2.0,88,0.00,,,0.23,WUHU21523XXSP,2013-03-31 18:27:00,
2013-03-31 14:32:00,51.6,48.1,29.82,NE,45,0.0,2.0,88,0.00,,,0.23,WUHU21523XXSP,2013-03-31 18:32:00,
2013-03-31 14:37:00,51.8,48.3,29.82,NE,45,0.0,0.0,88,0.00,,,0.23,WUHU21523XXSP,2013-03-31 18:37:00,
2013-03-31 14:42:00,52.0,48.2,29.83,NE,45,0.0,0.0,87,0.00,,,0.23,WUHU21523XXSP,2013-03-31 18:42:00,
2013-03-31 14:47:00,52.3,48.5,29.83,NE,45,0.0,0.0,87,0.00,,,0.23,WUHU21523XXSP,2013-03-31 18:47:00,
2013-03-31 14:52:00,52.3,48.2,29.83,NE,45,0.0,0.0,86,0.00,,,0.23,WUHU21523XXSP,2013-03-31 18:52:00,
2013-03-31 14:57:00,52.3,48.2,29.83,NE,45,0.0,0.0,86,0.00,,,0.23,WUHU21523XXSP,2013-03-31 18:57:00,
2013-03-31 15:02:00,52.5,48.4,29.83,NE,45,0.0,0.0,86,0.00,,,0.23,WUHU21523XXSP,2013-03-31 19:02:00,
2013-03-31 15:07:00,52.5,48.4,29.83,NE,45,1.6,1.6,86,0.00,,,0.23,WUHU21523XXSP,2013-03-31 19:07:00,
2013-03-31 15:12:00,52.5,48.4,29.83,NE,45,0.0,1.6,86,0.00,,,0.23,WUHU21523XXSP,2013-03-31 19:12:00,
2013-03-31 15:17:00,52.7,48.6,29.83,NE,45,0.0,0.0,86,0.00,,,0.23,WUHU21523XXSP,2013-03-31 19:17:00,
2013-03-31 15:22:00,52.7,48.6,29.83,NE,45,0.0,0.0,86,0.00,,,0.23,WUHU21523XXSP,2013-03-31 19:22:00,
2013-03-31 15:27:00,52.9,48.8,29.83,NE,45,0.0,0.0,86,0.00,,,0.23,WUHU21523XXSP,2013-03-31 19:27:00,
2013-03-31 15:37:00,53.2,49.1,29.83,NE,45,0.0,0.0,86,0.00,,,0.23,WUHU21523XXSP,2013-03-31 19:37:00,
2013-03-31 15:47:00,53.4,49.0,29.83,NE,45,0.0,0.0,85,0.00,,,0.23,WUHU21523XXSP,2013-03-31 19:47:00,
2013-03-31 15:52:00,53.8,49.4,29.83,NE,45,0.0,0.0,85,0.00,,,0.23,WUHU21523XXSP,2013-03-31 19:52:00,
2013-03-31 15:57:00,54.0,49.5,29.83,NE,45,0.0,0.0,85,0.00,,,0.23,WUHU21523XXSP,2013-03-31 19:57:00,
2013-03-31 16:02:00,54.3,49.9,29.83,NE,45,0.0,0.0,85,0.00,,,0.23,WUHU21523XXSP,2013-03-31 20:02:00,
2013-03-31 16:07:00,54.3,49.9,29.82,NE,45,0.0,0.0,85,0.00,,,0.23,WUHU21523XXSP,2013-03-31 20:07:00,
2013-03-31 16:17:00,55.2,50.7,29.83,East,90,0.0,0.0,85,0.00,,,0.23,WUHU21523XXSP,2013-03-31 20:17:00,
2013-03-31 16:22:00,55.6,51.1,29.82,East,90,0.0,0.0,85,0.00,,,0.23,WUHU21523XXSP,2013-03-31 20:22:00,
2013-03-31 16:32:00,55.9,51.1,29.81,ENE,67,0.0,0.0,84,0.00,,,0.23,WUHU21523XXSP,2013-03-31 20:32:00,
2013-03-31 16:42:00,56.7,51.5,29.82,ENE,67,0.0,0.0,83,0.00,,,0.23,WUHU21523XXSP,2013-03-31 20:42:00,
2013-03-31 16:52:00,57.0,51.5,29.81,ENE,67,0.0,0.0,82,0.00,,,0.23,WUHU21523XXSP,2013-03-31 20:52:00,
2013-03-31 16:57:00,57.4,51.9,29.82,NNE,22,19.7,19.7,82,0.00,,,0.23,WUHU21523XXSP,2013-03-31 20:57:00,
2013-03-31 17:02:00,57.7,52.3,29.82,NNE,22,0.0,19.7,82,0.00,,,0.23,WUHU21523XXSP,2013-03-31 21:02:00,
2013-03-31 17:07:00,57.9,52.1,29.82,NNE,22,0.0,0.0,81,0.00,,,0.23,WUHU21523XXSP,2013-03-31 21:07:00,
2013-03-31 17:12:00,57.9,52.1,29.82,NE,45,0.0,0.0,81,0.00,,,0.23,WUHU21523XXSP,2013-03-31 21:12:00,
2013-03-31 17:17:00,58.3,52.2,29.81,NNE,22,0.0,3.8,80,0.00,,,0.23,WUHU21523XXSP,2013-03-31 21:17:00,
2013-03-31 17:22:00,58.3,51.8,29.81,NE,45,0.0,3.8,79,0.00,,,0.23,WUHU21523XXSP,2013-03-31 21:22:00,
2013-03-31 17:32:00,58.8,51.6,29.81,NNW,337,4.9,6.0,77,0.00,,,0.23,WUHU21523XXSP,2013-03-31 21:32:00,
2013-03-31 17:37:00,58.8,50.9,29.81,NW,315,1.7,4.9,75,0.00,,,0.23,WUHU21523XXSP,2013-03-31 21:37:00,
2013-03-31 17:42:00,58.8,50.9,29.81,West,270,0.9,2.2,75,0.00,,,0.23,WUHU21523XXSP,2013-03-31 21:42:00,
2013-03-31 17:52:00,58.8,50.5,29.80,WSW,247,5.8,5.8,74,0.00,,,0.23,WUHU21523XXSP,2013-03-31 21:52:00,
2013-03-31 17:57:00,58.8,50.2,29.80,North,0,1.3,5.8,73,0.00,,,0.23,WUHU21523XXSP,2013-03-31 21:57:00,
2013-03-31 18:02:00,58.8,50.2,29.80,SSW,202,5.8,5.8,73,0.00,,,0.23,WUHU21523XXSP,2013-03-31 22:02:00,
2013-03-31 18:12:00,58.8,49.8,29.81,NNW,337,4.9,4.9,72,0.00,,,0.23,WUHU21523XXSP,2013-03-31 22:12:00,
2013-03-31 18:17:00,58.8,49.5,29.81,WNW,292,0.4,4.9,71,0.00,,,0.23,WUHU21523XXSP,2013-03-31 22:17:00,
2013-03-31 18:22:00,58.8,49.1,29.80,SE,135,9.2,9.2,70,0.00,,,0.23,WUHU21523XXSP,2013-03-31 22:22:00,
2013-03-31 18:27:00,58.8,49.1,29.80,NW,310,3.8,9.2,70,0.00,,,0.23,WUHU21523XXSP,2013-03-31 22:27:00,
2013-03-31 18:32:00,58.8,48.7,29.80,WSW,255,13.8,27.3,69,0.00,,,0.23,WUHU21523XXSP,2013-03-31 22:32:00,
2013-03-31 18:37:00,58.8,49.1,29.79,SW,225,0.4,27.3,70,0.00,,,0.23,WUHU21523XXSP,2013-03-31 22:37:00,
2013-03-31 18:42:00,58.6,48.9,29.78,West,270,0.0,3.1,70,0.00,,,0.23,WUHU21523XXSP,2013-03-31 22:42:00,
2013-03-31 18:47:00,58.6,48.5,29.78,West,270,2.5,3.6,69,0.00,,,0.23,WUHU21523XXSP,2013-03-31 22:47:00,
2013-03-31 18:52:00,58.6,48.5,29.78,NW,321,1.3,3.6,69,0.00,,,0.23,WUHU21523XXSP,2013-03-31 22:52:00,
2013-03-31 18:57:00,58.6,48.5,29.78,WNW,292,0.0,2.9,69,0.00,,,0.23,WUHU21523XXSP,2013-03-31 22:57:00,
2013-03-31 19:02:00,58.6,48.5,29.78,NW,315,4.5,4.5,69,0.00,,,0.23,WUHU21523XXSP,2013-03-31 23:02:00,
2013-03-31 19:12:00,58.5,48.3,29.79,NW,315,0.0,1.3,69,0.00,,,0.23,WUHU21523XXSP,2013-03-31 23:12:00,
2013-03-31 19:17:00,58.3,48.1,29.79,West,270,0.0,0.0,69,0.00,,,0.23,WUHU21523XXSP,2013-03-31 23:17:00,
2013-03-31 19:22:00,58.3,47.7,29.79,WSW,247,0.0,2.7,68,0.00,,,0.23,WUHU21523XXSP,2013-03-31 23:22:00,
2013-03-31 19:27:00,58.3,47.7,29.78,NW,315,1.8,2.7,68,0.00,,,0.23,WUHU21523XXSP,2013-03-31 23:27:00,
2013-03-31 19:32:00,58.3,47.7,29.79,NW,315,1.8,1.8,68,0.00,,,0.23,WUHU21523XXSP,2013-03-31 23:32:00,
2013-03-31 19:42:00,58.1,47.7,29.79,WNW,292,0.0,0.0,68,0.00,,,0.23,WUHU21523XXSP,2013-03-31 23:42:00,
2013-03-31 19:47:00,57.9,47.4,29.79,WNW,292,0.0,0.0,68,0.00,,,0.23,WUHU21523XXSP,2013-03-31 23:47:00,
2013-03-31 19:57:00,57.7,47.2,29.80,West,270,0.0,0.0,68,0.00,,,0.23,WUHU21523XXSP,2013-03-31 23:57:00,
2013-03-31 20:02:00,57.4,46.9,29.81,West,270,0.0,0.0,68,0.00,,,0.23,WUHU21523XXSP,2013-04-01 00:02:00,
2013-03-31 20:07:00,57.0,46.5,29.81,WSW,247,0.0,0.0,68,0.00,,,0.23,WUHU21523XXSP,2013-04-01 00:07:00,
2013-03-31 20:12:00,56.8,46.3,29.81,WSW,247,0.0,0.0,68,0.00,,,0.23,WUHU21523XXSP,2013-04-01 00:12:00,
2013-03-31 20:17:00,56.5,46.4,29.81,WSW,247,0.0,0.0,69,0.00,,,0.23,WUHU21523XXSP,2013-04-01 00:17:00,
2013-03-31 20:22:00,56.3,46.3,29.81,North,0,0.0,0.0,69,0.00,,,0.23,WUHU21523XXSP,2013-04-01 00:22:00,
2013-03-31 20:27:00,56.1,46.1,29.81,West,270,0.0,0.0,69,0.00,,,0.23,WUHU21523XXSP,2013-04-01 00:27:00,
2013-03-31 20:32:00,55.9,46.3,29.81,West,270,0.0,0.0,70,0.00,,,0.23,WUHU21523XXSP,2013-04-01 00:32:00,
2013-03-31 20:37:00,55.9,46.3,29.81,West,270,0.0,0.0,70,0.00,,,0.23,WUHU21523XXSP,2013-04-01 00:37:00,
2013-03-31 20:47:00,55.4,45.9,29.81,West,270,0.0,0.0,70,0.00,,,0.23,WUHU21523XXSP,2013-04-01 00:47:00,
2013-03-31 20:52:00,55.2,45.7,29.81,West,270,0.0,0.0,70,0.00,,,0.23,WUHU21523XXSP,2013-04-01 00:52:00,
2013-03-31 20:57:00,55.0,45.5,29.81,West,270,0.0,0.0,70,0.00,,,0.23,WUHU21523XXSP,2013-04-01 00:57:00,
2013-03-31 21:02:00,54.9,45.7,29.82,West,270,0.0,0.0,71,0.00,,,0.23,WUHU21523XXSP,2013-04-01 01:02:00,
2013-03-31 21:12:00,54.5,45.3,29.82,West,270,0.0,0.0,71,0.00,,,0.23,WUHU21523XXSP,2013-04-01 01:12:00,
2013-03-31 21:17:00,54.3,45.1,29.82,West,270,0.0,0.0,71,0.00,,,0.23,WUHU21523XXSP,2013-04-01 01:17:00,
2013-03-31 21:22:00,54.3,45.1,29.82,West,270,0.0,0.0,71,0.00,,,0.23,WUHU21523XXSP,2013-04-01 01:22:00,
2013-03-31 21:27:00,53.8,44.9,29.83,West,270,0.0,0.0,72,0.00,,,0.23,WUHU21523XXSP,2013-04-01 01:27:00,
2013-03-31 21:32:00,53.8,44.9,29.83,West,270,0.0,0.0,72,0.00,,,0.23,WUHU21523XXSP,2013-04-01 01:32:00,
2013-03-31 21:37:00,53.4,45.0,29.83,West,270,0.0,0.0,73,0.00,,,0.23,WUHU21523XXSP,2013-04-01 01:37:00,
2013-03-31 21:42:00,53.1,44.6,29.83,West,270,0.0,0.0,73,0.00,,,0.23,WUHU21523XXSP,2013-04-01 01:42:00,
2013-03-31 21:52:00,52.7,44.7,29.83,West,270,0.0,0.0,74,0.00,,,0.23,WUHU21523XXSP,2013-04-01 01:52:00,
2013-03-31 21:57:00,52.5,44.8,29.83,West,270,0.0,0.0,75,0.00,,,0.23,WUHU21523XXSP,2013-04-01 01:57:00,
2013-03-31 22:07:00,52.5,44.8,29.83,SSE,157,0.9,0.9,75,0.00,,,0.23,WUHU21523XXSP,2013-04-01 02:07:00,
2013-03-31 22:12:00,52.3,44.7,29.83,SSE,157,0.0,0.9,75,0.00,,,0.23,WUHU21523XXSP,2013-04-01 02:12:00,
2013-03-31 22:22:00,52.3,44.7,29.83,SSE,157,0.0,0.0,75,0.00,,,0.23,WUHU21523XXSP,2013-04-01 02:22:00,
2013-03-31 22:32:00,52.0,44.3,29.84,SSE,157,0.0,0.0,75,0.00,,,0.23,WUHU21523XXSP,2013-04-01 02:32:00,
2013-03-31 22:37:00,52.0,44.3,29.83,SSE,157,0.0,0.0,75,0.00,,,0.23,WUHU21523XXSP,2013-04-01 02:37:00,
2013-03-31 22:47:00,51.6,44.0,29.84,SSE,157,0.0,0.0,75,0.00,,,0.23,WUHU21523XXSP,2013-04-01 02:47:00,
2013-03-31 22:52:00,51.6,44.0,29.84,SSE,157,0.0,0.0,75,0.00,,,0.23,WUHU21523XXSP,2013-04-01 02:52:00,
2013-03-31 22:57:00,51.4,44.1,29.84,SSE,157,0.0,0.0,76,0.00,,,0.23,WUHU21523XXSP,2013-04-01 02:57:00,
2013-03-31 23:07:00,51.1,44.1,29.84,SSE,157,0.0,0.0,77,0.00,,,0.23,WUHU21523XXSP,2013-04-01 03:07:00,
2013-03-31 23:12:00,50.9,43.9,29.84,SSE,157,0.0,0.0,77,0.00,,,0.23,WUHU21523XXSP,2013-04-01 03:12:00,
2013-03-31 23:17:00,50.9,43.9,29.85,SSE,157,0.0,0.0,77,0.00,,,0.23,WUHU21523XXSP,2013-04-01 03:17:00,
2013-03-31 23:27:00,50.7,44.1,29.85,SSE,157,0.0,0.0,78,0.00,,,0.23,WUHU21523XXSP,2013-04-01 03:27:00,
2013-03-31 23:37:00,50.7,44.1,29.85,SSE,157,0.0,0.0,78,0.00,,,0.23,WUHU21523XXSP,2013-04-01 03:37:00,
2013-03-31 23:42:00,50.9,44.3,29.85,SSE,157,0.0,0.0,78,0.00,,,0.23,WUHU21523XXSP,2013-04-01 03:42:00,
2013-03-31 23:47:00,50.9,44.6,29.85,SSE,157,0.0,0.0,79,0.00,,,0.23,WUHU21523XXSP,2013-04-01 03:47:00,
2013-03-31 23:52:00,50.9,44.6,29.84,SSE,157,0.0,0.0,79,0.00,,,0.23,WUHU21523XXSP,2013-04-01 03:52:00,
2013-03-31 23:57:00,50.9,44.6,29.85,SSE,157,0.0,0.0,79,0.00,,,0.23,WUHU21523XXSP,2013-04-01 03:57:00,